Location: Newark
(50.6672°N, 3.2681°E)
Time: 04:38:56
(UTC+00:00)

N. Korean satellite - Visible Passes

Search period start: 25 September 2020 00:00
Search period end: 05 October 2020 00:00
Orbit: 455 x 503 km, 97.2° (Epoch: 24 September)

Date Brightness Start Highest point End Pass type
(mag) Time Alt. Az. Time Alt. Az. Time Alt. Az.
26 Sep 8.8 04:53:26 10° NNE 04:56:45 31° E 05:00:00 10° SSE visible
27 Sep 9.8 04:28:04 10° NE 04:30:32 17° E 04:32:58 10° SE visible
29 Sep 7.9 05:08:33 10° NNE 05:12:05 46° E 05:15:32 10° S visible
30 Sep 9.3 04:42:54 10° NE 04:45:55 24° E 04:48:52 10° SSE visible
01 Oct 10.0 04:17:51 10° ENE 04:19:38 13° E 04:21:23 10° ESE visible
03 Oct 8.5 04:57:53 10° NNE 05:01:13 35° E 05:04:29 10° SSE visible
04 Oct 9.7 04:32:24 10° NE 04:34:59 19° E 04:37:33 10° SE visible
